HDB1 OMAA-OMRK

Flight info

Callsign HDB1
Flight time N/A
Altitude 5000
Route TULON M318 TOVIV R784 ALSIL
Aircraft H160/L-SBDGRY/S

Departure

Time 2026-05-06 16:40
Airport Zayed International Airport (OMAA)

Arrival

Time N/A
Airport Ras Al Khaimah International Airport (OMRK)
Time Latitude Longitude Altitude Speed Heading
2026-05-06 16:40 24.46547 54.60355 1465 ft 110 kts 314°
2026-05-06 16:40 24.47015 54.59737 1605 ft 107 kts 313°
2026-05-06 16:41 24.47506 54.59083 1748 ft 109 kts 312°
2026-05-06 16:41 24.47960 54.58465 1884 ft 109 kts 311°
2026-05-06 16:41 24.48400 54.57861 2016 ft 109 kts 310°
2026-05-06 16:41 24.48869 54.57217 2157 ft 110 kts 310°
2026-05-06 16:42 24.49309 54.56612 2296 ft 110 kts 309°
2026-05-06 16:42 24.49779 54.55965 2424 ft 111 kts 309°
2026-05-06 16:42 24.50238 54.55318 2558 ft 112 kts 308°
2026-05-06 16:42 24.50715 54.54642 2694 ft 115 kts 308°
2026-05-06 16:43 24.51188 54.53974 2829 ft 116 kts 307°
2026-05-06 16:43 24.51684 54.53276 2976 ft 115 kts 306°
2026-05-06 16:43 24.52217 54.52617 3110 ft 117 kts 316°
2026-05-06 16:43 24.52935 54.52298 3240 ft 123 kts 353°
2026-05-06 16:44 24.53766 54.52396 3386 ft 120 kts 13°
2026-05-06 16:44 24.54590 54.52611 3528 ft 120 kts 14°
2026-05-06 16:44 24.55390 54.52820 3664 ft 119 kts 15°
2026-05-06 16:44 24.56210 54.53027 3810 ft 123 kts 14°
2026-05-06 16:45 24.56870 54.53200 3920 ft 121 kts 17°
2026-05-06 16:45 24.57677 54.53440 4053 ft 126 kts 17°
2026-05-06 16:45 24.58513 54.53694 4199 ft 124 kts 18°
2026-05-06 16:45 24.59289 54.53930 4334 ft 123 kts 17°
2026-05-06 16:46 24.60087 54.54171 4477 ft 124 kts 17°
2026-05-06 16:46 24.60912 54.54426 4617 ft 122 kts 17°
2026-05-06 16:46 24.61647 54.54653 4754 ft 127 kts 17°
2026-05-06 16:46 24.62476 54.54900 4887 ft 125 kts 18°
2026-05-06 16:47 24.63302 54.55140 4941 ft 128 kts 18°
2026-05-06 16:47 24.64164 54.55389 4967 ft 124 kts 18°
2026-05-06 16:47 24.65001 54.55635 4974 ft 126 kts 18°
2026-05-06 16:47 24.65809 54.55873 4981 ft 122 kts 18°
2026-05-06 16:48 24.66638 54.56121 4988 ft 123 kts 18°
2026-05-06 16:48 24.67444 54.56361 4991 ft 124 kts 18°
2026-05-06 16:48 24.68260 54.56604 4990 ft 128 kts 18°
2026-05-06 16:48 24.68945 54.56807 4990 ft 128 kts 18°
2026-05-06 16:49 24.69781 54.57056 4985 ft 123 kts 18°
2026-05-06 16:49 24.70581 54.57296 4994 ft 126 kts 18°
2026-05-06 16:49 24.71358 54.57537 4992 ft 123 kts 18°
2026-05-06 16:49 24.72188 54.57788 4987 ft 127 kts 18°
2026-05-06 16:50 24.73007 54.58033 4992 ft 125 kts 19°
2026-05-06 16:50 24.73790 54.58261 5000 ft 129 kts 18°
2026-05-06 16:50 24.74636 54.58508 4995 ft 128 kts 18°
2026-05-06 16:50 24.75482 54.58757 4992 ft 126 kts 18°
2026-05-06 16:51 24.76234 54.58973 5003 ft 124 kts 18°
2026-05-06 16:51 24.77052 54.59214 5000 ft 124 kts 18°
2026-05-06 16:51 24.77895 54.59463 5004 ft 127 kts 18°
2026-05-06 16:51 24.78710 54.59705 5000 ft 126 kts 18°
2026-05-06 16:52 24.79488 54.59943 4997 ft 128 kts 23°
2026-05-06 16:52 24.80144 54.60514 5000 ft 118 kts 60°
2026-05-06 16:52 24.80560 54.61266 4992 ft 120 kts 66°
2026-05-06 16:52 24.81072 54.61990 4998 ft 123 kts 43°
2026-05-06 16:53 24.81793 54.62498 4999 ft 123 kts 36°
2026-05-06 16:53 24.82494 54.63026 4997 ft 122 kts 41°
2026-05-06 16:53 24.83184 54.63580 4994 ft 123 kts 40°
2026-05-06 16:53 24.83837 54.64110 4994 ft 122 kts 41°
2026-05-06 16:54 24.84542 54.64680 5006 ft 120 kts 41°
2026-05-06 16:54 24.85203 54.65227 4998 ft 122 kts 41°
2026-05-06 16:54 24.85883 54.65779 5005 ft 122 kts 40°
2026-05-06 16:54 24.86568 54.66338 4998 ft 123 kts 40°
2026-05-06 16:55 24.87256 54.66896 5001 ft 122 kts 41°
2026-05-06 16:55 24.87866 54.67399 5006 ft 123 kts 40°
2026-05-06 16:55 24.88549 54.67959 5007 ft 122 kts 41°
2026-05-06 16:55 24.89226 54.68523 5003 ft 123 kts 42°
2026-05-06 16:56 24.89899 54.69075 5005 ft 121 kts 41°
2026-05-06 16:56 24.90583 54.69624 5003 ft 125 kts 41°
2026-05-06 16:56 24.91280 54.70186 5007 ft 123 kts 42°
2026-05-06 16:56 24.91966 54.70742 5001 ft 123 kts 41°
2026-05-06 16:57 24.92654 54.71300 4997 ft 123 kts 41°
2026-05-06 16:57 24.93079 54.71645 5002 ft 122 kts 41°
2026-05-06 16:57 24.93645 54.72104 5007 ft 122 kts 41°
2026-05-06 16:57 24.94296 54.72621 5000 ft 125 kts 41°
2026-05-06 16:58 24.94996 54.73175 5013 ft 125 kts 42°
2026-05-06 16:58 24.95688 54.73730 5001 ft 123 kts 41°
2026-05-06 16:58 24.96378 54.74285 5009 ft 122 kts 41°
2026-05-06 16:58 24.97046 54.74825 5004 ft 123 kts 42°
2026-05-06 16:59 24.97729 54.75374 5009 ft 122 kts 41°
2026-05-06 16:59 24.98404 54.75934 5004 ft 121 kts 41°
2026-05-06 16:59 24.99076 54.76490 5008 ft 120 kts 40°
2026-05-06 16:59 24.99747 54.77051 5013 ft 121 kts 41°
2026-05-06 17:00 25.00399 54.77596 5012 ft 120 kts 41°
2026-05-06 17:00 25.01022 54.78117 5011 ft 121 kts 41°
2026-05-06 17:00 25.01691 54.78680 5015 ft 120 kts 41°
2026-05-06 17:00 25.02362 54.79241 5008 ft 122 kts 41°
2026-05-06 17:01 25.03033 54.79804 5015 ft 121 kts 41°
2026-05-06 17:01 25.03706 54.80371 5015 ft 121 kts 41°
2026-05-06 17:01 25.04356 54.80917 5013 ft 121 kts 41°
2026-05-06 17:01 25.05025 54.81479 5012 ft 121 kts 41°
2026-05-06 17:02 25.05695 54.82042 5013 ft 121 kts 41°
2026-05-06 17:02 25.06364 54.82602 5008 ft 121 kts 41°
2026-05-06 17:02 25.07021 54.83155 5013 ft 121 kts 41°
2026-05-06 17:02 25.07679 54.83707 5015 ft 120 kts 41°
2026-05-06 17:03 25.08302 54.84236 5013 ft 122 kts 41°
2026-05-06 17:03 25.08983 54.84810 5018 ft 122 kts 41°
2026-05-06 17:03 25.09645 54.85364 5015 ft 122 kts 41°
2026-05-06 17:03 25.10337 54.85943 5016 ft 121 kts 41°
2026-05-06 17:04 25.10990 54.86488 5011 ft 122 kts 41°
2026-05-06 17:04 25.11651 54.87041 5014 ft 120 kts 41°
2026-05-06 17:04 25.12301 54.87589 5014 ft 121 kts 41°
2026-05-06 17:04 25.12961 54.88136 5016 ft 121 kts 41°
2026-05-06 17:05 25.13620 54.88676 5019 ft 122 kts 41°
2026-05-06 17:05 25.14298 54.89234 5012 ft 122 kts 41°
2026-05-06 17:05 25.14981 54.89797 5013 ft 122 kts 41°
2026-05-06 17:05 25.15651 54.90368 5010 ft 121 kts 48°
2026-05-06 17:06 25.16037 54.91157 5019 ft 117 kts 79°
2026-05-06 17:06 25.16171 54.92029 5014 ft 116 kts 91°
2026-05-06 17:06 25.16230 54.92913 5015 ft 116 kts 92°
2026-05-06 17:06 25.16281 54.93796 5015 ft 115 kts 92°
2026-05-06 17:07 25.16332 54.94665 5011 ft 115 kts 92°
2026-05-06 17:07 25.16382 54.95540 5015 ft 116 kts 92°
2026-05-06 17:07 25.16434 54.96432 5012 ft 116 kts 92°
2026-05-06 17:07 25.16486 54.97317 5007 ft 115 kts 92°
2026-05-06 17:08 25.16540 54.98197 5012 ft 116 kts 92°
2026-05-06 17:08 25.16595 54.99085 5013 ft 115 kts 92°
2026-05-06 17:08 25.16650 54.99970 5014 ft 115 kts 92°
2026-05-06 17:08 25.16687 55.00849 5015 ft 114 kts 99°
2026-05-06 17:09 25.16573 55.01720 5016 ft 115 kts 105°
2026-05-06 17:09 25.16443 55.02581 5017 ft 114 kts 105°
2026-05-06 17:09 25.16309 55.03452 5012 ft 116 kts 105°
2026-05-06 17:09 25.16173 55.04308 5020 ft 117 kts 105°
2026-05-06 17:10 25.16037 55.05143 5013 ft 116 kts 105°
2026-05-06 17:10 25.15893 55.06028 5010 ft 116 kts 105°
2026-05-06 17:10 25.15751 55.06887 5013 ft 116 kts 105°
2026-05-06 17:10 25.15611 55.07762 5012 ft 116 kts 105°
2026-05-06 17:11 25.15471 55.08637 5011 ft 115 kts 105°
2026-05-06 17:11 25.15333 55.09511 5006 ft 115 kts 104°
2026-05-06 17:11 25.15192 55.10381 5013 ft 115 kts 105°
2026-05-06 17:11 25.15070 55.11248 5012 ft 115 kts 99°
2026-05-06 17:12 25.15034 55.12135 5010 ft 116 kts 96°
2026-05-06 17:12 25.15017 55.13012 5012 ft 116 kts 96°
2026-05-06 17:12 25.15035 55.13907 5012 ft 117 kts 91°
2026-05-06 17:12 25.15087 55.14798 5012 ft 116 kts 92°
2026-05-06 17:13 25.15142 55.15694 5016 ft 117 kts 91°
2026-05-06 17:13 25.15196 55.16590 5009 ft 117 kts 91°
2026-05-06 17:13 25.15244 55.17483 5008 ft 117 kts 91°
2026-05-06 17:13 25.15293 55.18375 5004 ft 117 kts 91°
2026-05-06 17:14 25.15342 55.19256 5008 ft 117 kts 91°
2026-05-06 17:14 25.15393 55.20134 5010 ft 117 kts 90°
2026-05-06 17:14 25.15443 55.21023 5009 ft 117 kts 92°
2026-05-06 17:14 25.15493 55.21922 5007 ft 116 kts 91°
2026-05-06 17:15 25.15542 55.22812 5008 ft 116 kts 91°
2026-05-06 17:15 25.15593 55.23702 5007 ft 116 kts 91°
2026-05-06 17:15 25.15644 55.24567 5006 ft 116 kts 91°
2026-05-06 17:15 25.15694 55.25431 4707 ft 114 kts 92°
2026-05-06 17:16 25.15729 55.26277 4306 ft 109 kts 93°
2026-05-06 17:16 25.15751 55.27108 3899 ft 107 kts 92°
2026-05-06 17:16 25.15893 55.27801 3547 ft 107 kts 64°
2026-05-06 17:16 25.16308 55.28472 3157 ft 106 kts 54°
2026-05-06 17:17 25.16760 55.29107 2760 ft 105 kts 54°
2026-05-06 17:17 25.17056 55.29523 2498 ft 104 kts 53°
2026-05-06 17:17 25.17566 55.30339 1989 ft 102 kts 67°
2026-05-06 17:17 25.17822 55.31065 1594 ft 101 kts 70°
2026-05-06 17:18 25.18060 55.31786 1216 ft 101 kts 70°
2026-05-06 17:18 25.18295 55.32510 1100 ft 100 kts 73°
2026-05-06 17:18 25.18432 55.33273 1048 ft 102 kts 81°
2026-05-06 17:18 25.18520 55.34036 1030 ft 100 kts 81°
2026-05-06 17:19 25.18602 55.34793 1018 ft 100 kts 84°
2026-05-06 17:19 25.18630 55.35557 1009 ft 101 kts 89°
2026-05-06 17:19 25.18618 55.36342 1003 ft 103 kts 94°
2026-05-06 17:19 25.18505 55.37124 1002 ft 103 kts 99°
2026-05-06 17:20 25.18374 55.37857 1006 ft 102 kts 101°
2026-05-06 17:20 25.18235 55.38636 1003 ft 103 kts 100°
2026-05-06 17:20 25.18092 55.39390 1005 ft 102 kts 100°
2026-05-06 17:20 25.17957 55.40152 1001 ft 102 kts 100°
2026-05-06 17:21 25.17872 55.40653 1003 ft 101 kts 100°
2026-05-06 17:21 25.17741 55.41428 1001 ft 102 kts 99°
2026-05-06 17:21 25.17603 55.42196 1006 ft 101 kts 103°
2026-05-06 17:21 25.17443 55.42941 1003 ft 101 kts 104°
2026-05-06 17:22 25.17278 55.43705 1004 ft 101 kts 103°
2026-05-06 17:22 25.17112 55.44442 1001 ft 102 kts 103°
2026-05-06 17:22 25.16939 55.45195 1002 ft 99 kts 104°
2026-05-06 17:22 25.16781 55.45950 1000 ft 102 kts 103°
2026-05-06 17:23 25.16633 55.46725 1003 ft 103 kts 102°
2026-05-06 17:23 25.16526 55.47503 1000 ft 102 kts 95°
2026-05-06 17:23 25.16450 55.48254 1002 ft 102 kts 96°
2026-05-06 17:23 25.16374 55.49035 1000 ft 102 kts 94°
2026-05-06 17:24 25.16345 55.49809 994 ft 103 kts 87°
2026-05-06 17:24 25.16397 55.50597 1003 ft 101 kts 85°
2026-05-06 17:24 25.16459 55.51370 1001 ft 102 kts 85°
2026-05-06 17:24 25.16526 55.52139 1000 ft 101 kts 80°
2026-05-06 17:25 25.16876 55.52787 1014 ft 96 kts 42°
2026-05-06 17:25 25.17450 55.53201 1005 ft 99 kts 30°
2026-05-06 17:25 25.18051 55.53529 1006 ft 96 kts 30°
2026-05-06 17:25 25.18669 55.53846 999 ft 98 kts 28°
2026-05-06 17:26 25.19281 55.54174 1006 ft 97 kts 28°
2026-05-06 17:26 25.19887 55.54510 998 ft 99 kts 33°
2026-05-06 17:26 25.20477 55.54906 999 ft 99 kts 34°
2026-05-06 17:26 25.21056 55.55307 998 ft 100 kts 34°
2026-05-06 17:27 25.21639 55.55713 999 ft 97 kts 34°
2026-05-06 17:27 25.22214 55.56117 1001 ft 98 kts 35°
2026-05-06 17:27 25.22780 55.56537 999 ft 99 kts 37°
2026-05-06 17:27 25.23325 55.56966 996 ft 98 kts 37°
2026-05-06 17:28 25.23882 55.57402 1002 ft 101 kts 37°
2026-05-06 17:28 25.24457 55.57852 1003 ft 100 kts 37°
2026-05-06 17:28 25.25022 55.58294 1001 ft 100 kts 37°
2026-05-06 17:28 25.25587 55.58732 1215 ft 99 kts 36°
2026-05-06 17:29 25.26157 55.59161 1577 ft 102 kts 35°
2026-05-06 17:29 25.26750 55.59601 2043 ft 101 kts 35°
2026-05-06 17:29 25.27344 55.60034 2526 ft 103 kts 34°
2026-05-06 17:29 25.27943 55.60474 3023 ft 105 kts 36°
2026-05-06 17:30 25.28551 55.60915 3545 ft 106 kts 35°
2026-05-06 17:30 25.29168 55.61363 4044 ft 106 kts 35°
2026-05-06 17:30 25.29795 55.61813 4564 ft 107 kts 35°
2026-05-06 17:30 25.30412 55.62267 4842 ft 106 kts 37°
2026-05-06 17:31 25.31003 55.62709 4914 ft 107 kts 37°
2026-05-06 17:31 25.31615 55.63171 4954 ft 107 kts 37°
2026-05-06 17:31 25.32225 55.63629 4967 ft 107 kts 37°
2026-05-06 17:31 25.32845 55.64096 4977 ft 108 kts 37°
2026-05-06 17:32 25.33469 55.64569 4978 ft 111 kts 37°
2026-05-06 17:32 25.34087 55.65041 4983 ft 113 kts 37°
2026-05-06 17:32 25.34737 55.65539 4987 ft 113 kts 37°
2026-05-06 17:32 25.35372 55.66027 4983 ft 112 kts 37°
2026-05-06 17:33 25.36015 55.66519 4981 ft 112 kts 37°
2026-05-06 17:33 25.36654 55.67008 4982 ft 112 kts 37°
2026-05-06 17:33 25.37296 55.67497 4984 ft 112 kts 37°
2026-05-06 17:33 25.37935 55.67986 4978 ft 111 kts 37°
2026-05-06 17:34 25.38575 55.68475 4981 ft 111 kts 37°
2026-05-06 17:34 25.39210 55.68963 4981 ft 111 kts 37°
2026-05-06 17:34 25.39846 55.69450 4981 ft 112 kts 37°
2026-05-06 17:34 25.40482 55.69939 4978 ft 111 kts 37°
2026-05-06 17:35 25.41113 55.70421 4981 ft 112 kts 37°
2026-05-06 17:35 25.41743 55.70902 4988 ft 113 kts 37°
2026-05-06 17:35 25.42387 55.71395 4981 ft 113 kts 37°
2026-05-06 17:36 25.43667 55.72378 4979 ft 112 kts 37°